| time (UTC) | temp F | wind direction | speed MPH | gust MPH | rain 1hr in | rain 24hr in | rain mn in | humidity % | barometer mb |
| 20260507231928 | 63 | 270 | 1.0 | 4.0 | 0.00 | 0.00 | 0.00 | 45 | 1036.8 |
| 20260507231422 | 64 | 94 | 2.0 | 10.0 | 0.00 | 0.00 | 0.00 | 44 | 1036.8 |
| 20260507230916 | 64 | 296 | 2.0 | 10.0 | 0.00 | 0.00 | 0.00 | 46 | 1036.8 |
| 20260507230410 | 64 | 259 | 1.0 | 7.0 | 0.00 | 0.00 | 0.00 | 43 | 1036.5 |
| 20260507225901 | 65 | 192 | 1.0 | 5.0 | 0.00 | 0.00 | 0.00 | 44 | 1036.5 |
| 20260507225358 | 65 | 122 | 1.0 | 8.0 | 0.00 | 0.00 | 0.00 | 43 | 1036.5 |
| 20260507224859 | 66 | 146 | 2.0 | 8.0 | 0.00 | 0.00 | 0.00 | 42 | 1036.1 |
| 20260507224358 | 67 | 229 | 2.0 | 8.0 | 0.00 | 0.00 | 0.00 | 42 | 1036.1 |
| 20260507224132 | 68 | 238 | 2.0 | 8.0 | 0.00 | 0.00 | 0.00 | 42 | 1036.1 |
| 20260507223359 | 68 | 73 | 1.0 | 6.0 | 0.00 | 0.00 | 0.00 | 41 | 1036.0 |
| 20260507223125 | 68 | 219 | 2.0 | 8.0 | 0.00 | 0.00 | 0.00 | 41 | 1036.0 |
| 20260507222355 | 69 | 299 | 2.0 | 8.0 | 0.00 | 0.00 | 0.00 | 39 | 1036.0 |
| 20260507221856 | 69 | 9 | 2.0 | 8.0 | 0.00 | 0.00 | 0.00 | 39 | 1036.0 |
| 20260507221356 | 69 | 261 | 3.0 | 12.0 | 0.00 | 0.00 | 0.00 | 39 | 1036.0 |
| 20260507220855 | 68 | 292 | 3.0 | 12.0 | 0.00 | 0.00 | 0.00 | 40 | 1036.0 |
| 20260507220359 | 69 | 270 | 2.0 | 8.0 | 0.00 | 0.00 | 0.00 | 40 | 1035.7 |
| 20260507215859 | 68 | 250 | 2.0 | 6.0 | 0.00 | 0.00 | 0.00 | 41 | 1035.7 |
| 20260507215353 | 68 | 231 | 2.0 | 7.0 | 0.00 | 0.00 | 0.00 | 39 | 1035.7 |
| 20260507214843 | 68 | 288 | 3.0 | 7.0 | 0.00 | 0.00 | 0.00 | 38 | 1035.7 |
| 20260507214340 | 68 | 240 | 2.0 | 8.0 | 0.00 | 0.00 | 0.00 | 39 | 1035.7 |
| 20260507213840 | 69 | 242 | 2.0 | 8.0 | 0.00 | 0.00 | 0.00 | 39 | 1035.7 |
| 20260507213340 | 70 | 257 | 3.0 | 8.0 | 0.00 | 0.00 | 0.00 | 39 | 1035.5 |
| 20260507212839 | 70 | 257 | 3.0 | 8.0 | 0.00 | 0.00 | 0.00 | 39 | 1035.5 |
| 20260507212339 | 70 | 227 | 2.0 | 8.0 | 0.00 | 0.00 | 0.00 | 39 | 1035.5 |
| 20260507211840 | 69 | 251 | 2.0 | 7.0 | 0.00 | 0.00 | 0.00 | 41 | 1035.5 |
| 20260507211343 | 69 | 248 | 2.0 | 7.0 | 0.00 | 0.00 | 0.00 | 41 | 1035.5 |
| 20260507211100 | 69 | 270 | 2.0 | 5.0 | 0.00 | 0.00 | 0.00 | 39 | 1035.5 |
| 20260507210337 | 70 | 244 | 2.0 | 7.0 | 0.00 | 0.00 | 0.00 | 40 | 1035.5 |
| 20260507205826 | 69 | 248 | 3.0 | 7.0 | 0.00 | 0.00 | 0.00 | 37 | 1035.5 |
| 20260507205310 | 70 | 200 | 2.0 | 7.0 | 0.00 | 0.00 | 0.00 | 38 | 1035.5 |
| 20260507204758 | 70 | 270 | 1.0 | 8.0 | 0.00 | 0.00 | 0.00 | 45 | 1035.6 |
| 20260507204241 | 70 | 135 | 1.0 | 8.0 | 0.00 | 0.00 | 0.00 | 39 | 1035.6 |
| 20260507203730 | 69 | 193 | 1.0 | 8.0 | 0.00 | 0.00 | 0.00 | 39 | 1035.6 |
| 20260507203217 | 69 | 113 | 1.0 | 8.0 | 0.00 | 0.00 | 0.00 | 43 | 1035.9 |
| 20260507202709 | 69 | 302 | 2.0 | 9.0 | 0.00 | 0.00 | 0.00 | 42 | 1035.9 |
| 20260507202201 | 69 | 261 | 3.0 | 9.0 | 0.00 | 0.00 | 0.00 | 42 | 1035.9 |
| 20260507201656 | 69 | 240 | 4.0 | 10.0 | 0.00 | 0.00 | 0.00 | 42 | 1035.8 |
| 20260507201151 | 69 | 254 | 3.0 | 10.0 | 0.00 | 0.00 | 0.00 | 41 | 1035.8 |
| 20260507200643 | 70 | 283 | 1.0 | 3.0 | 0.00 | 0.00 | 0.00 | 42 | 1035.8 |
| 20260507200133 | 69 | 194 | 1.0 | 7.0 | 0.00 | 0.00 | 0.00 | 42 | 1036.0 |
| 20260507195631 | 69 | 36 | 2.0 | 7.0 | 0.00 | 0.00 | 0.00 | 40 | 1036.0 |
| 20260507195125 | 69 | 82 | 1.0 | 5.0 | 0.00 | 0.00 | 0.00 | 44 | 1036.1 |
| 20260507194619 | 69 | 284 | 2.0 | 5.0 | 0.00 | 0.00 | 0.00 | 41 | 1036.1 |
| 20260507194113 | 69 | 132 | 2.0 | 6.0 | 0.00 | 0.00 | 0.00 | 42 | 1036.1 |
| 20260507193607 | 69 | 248 | 3.0 | 9.0 | 0.00 | 0.00 | 0.00 | 49 | 1036.4 |
| 20260507193103 | 68 | 313 | 3.0 | 11.0 | 0.00 | 0.00 | 0.00 | 41 | 1036.4 |
| 20260507192603 | 68 | 242 | 2.0 | 11.0 | 0.00 | 0.00 | 0.00 | 42 | 1036.4 |
| 20260507192103 | 68 | 279 | 2.0 | 5.0 | 0.00 | 0.00 | 0.00 | 44 | 1036.5 |
| 20260507191601 | 67 | 117 | 1.0 | 5.0 | 0.00 | 0.00 | 0.00 | 45 | 1036.5 |
| 20260507191101 | 66 | 101 | 0.0 | 3.0 | 0.00 | 0.00 | 0.00 | 43 | 1036.5 |
| 20260507190601 | 65 | 334 | 0.0 | 2.0 | 0.00 | 0.00 | 0.00 | 45 | 1036.6 |
| 20260507190058 | 66 | 250 | 0.0 | 3.0 | 0.00 | 0.00 | 0.00 | 44 | 1036.6 |
| 20260507185556 | 66 | 267 | 1.0 | 6.0 | 0.00 | 0.00 | 0.00 | 47 | 1036.6 |
| 20260507185057 | 67 | 194 | 1.0 | 6.0 | 0.00 | 0.00 | 0.00 | 43 | 1036.8 |
| 20260507184556 | 67 | 246 | 2.0 | 7.0 | 0.00 | 0.00 | 0.00 | 46 | 1036.8 |
| 20260507184055 | 67 | 263 | 4.0 | 8.0 | 0.00 | 0.00 | 0.00 | 46 | 1036.8 |
| 20260507183555 | 67 | 42 | 3.0 | 8.0 | 0.00 | 0.00 | 0.00 | 43 | 1036.9 |
| 20260507183055 | 67 | 232 | 1.0 | 8.0 | 0.00 | 0.00 | 0.00 | 45 | 1036.9 |
| 20260507182553 | 67 | 245 | 1.0 | 5.0 | 0.00 | 0.00 | 0.00 | 45 | 1036.9 |
| 20260507182314 | 66 | 319 | 2.0 | 6.0 | 0.00 | 0.00 | 0.00 | 48 | 1037.1 |
| 20260507181553 | 65 | 133 | 2.0 | 6.0 | 0.00 | 0.00 | 0.00 | 49 | 1037.1 |
| 20260507181052 | 65 | 254 | 2.0 | 6.0 | 0.00 | 0.00 | 0.00 | 47 | 1037.1 |
| 20260507180554 | 66 | 251 | 1.0 | 6.0 | 0.00 | 0.00 | 0.00 | 43 | 1037.5 |
| 20260507180048 | 66 | 238 | 1.0 | 6.0 | 0.00 | 0.00 | 0.00 | 52 | 1037.5 |
| 20260507175541 | 65 | 30 | 2.0 | 6.0 | 0.00 | 0.00 | 0.00 | 44 | 1037.5 |
| 20260507175028 | 65 | 48 | 2.0 | 10.0 | 0.00 | 0.00 | 0.00 | 47 | 1037.6 |
| 20260507174519 | 65 | 265 | 3.0 | 14.0 | 0.00 | 0.00 | 0.00 | 47 | 1037.6 |
| 20260507174244 | 65 | 230 | 3.0 | 14.0 | 0.00 | 0.00 | 0.00 | 51 | 1037.6 |
| 20260507173517 | 65 | 224 | 3.0 | 9.0 | 0.00 | 0.00 | 0.00 | 48 | 1038.0 |
| 20260507173242 | 65 | 39 | 2.0 | 6.0 | 0.00 | 0.00 | 0.00 | 48 | 1038.0 |
| 20260507172516 | 65 | 84 | 2.0 | 5.0 | 0.00 | 0.00 | 0.00 | 48 | 1038.0 |
| 20260507172238 | 65 | 290 | 2.0 | 5.0 | 0.00 | 0.00 | 0.00 | 49 | 1038.3 |
| 20260507171740 | 64 | 224 | 2.0 | 6.0 | 0.00 | 0.00 | 0.00 | 52 | 1038.3 |
| 20260507171017 | 64 | 86 | 2.0 | 6.0 | 0.00 | 0.00 | 0.00 | 48 | 1038.3 |
| 20260507170517 | 64 | 246 | 2.0 | 6.0 | 0.00 | 0.00 | 0.00 | 52 | 1038.6 |
| 20260507170010 | 63 | 294 | 3.0 | 8.0 | 0.00 | 0.00 | 0.00 | 49 | 1038.6 |
| 20260507165458 | 64 | 81 | 2.0 | 8.0 | 0.00 | 0.00 | 0.00 | 51 | 1038.6 |
| 20260507164947 | 63 | 138 | 2.0 | 6.0 | 0.00 | 0.00 | 0.00 | 55 | 1038.8 |
| 20260507164434 | 63 | 225 | 3.0 | 8.0 | 0.00 | 0.00 | 0.00 | 51 | 1038.8 |
| 20260507163922 | 63 | 251 | 2.0 | 8.0 | 0.00 | 0.00 | 0.00 | 52 | 1038.8 |
| 20260507163416 | 63 | 239 | 2.0 | 6.0 | 0.00 | 0.00 | 0.00 | 50 | 1038.8 |
| 20260507162916 | 63 | 34 | 1.0 | 5.0 | 0.00 | 0.00 | 0.00 | 57 | 1038.8 |
| 20260507162635 | 62 | 75 | 2.0 | 5.0 | 0.00 | 0.00 | 0.00 | 50 | 1038.8 |
| 20260507162135 | 62 | 333 | 2.0 | 7.0 | 0.00 | 0.00 | 0.00 | 51 | 1039.1 |
| 20260507161416 | 62 | 270 | 2.0 | 7.0 | 0.00 | 0.00 | 0.00 | 50 | 1039.1 |
| 20260507160918 | 62 | 106 | 1.0 | 7.0 | 0.00 | 0.00 | 0.00 | 53 | 1039.1 |
| 20260507160417 | 61 | 129 | 2.0 | 6.0 | 0.00 | 0.00 | 0.00 | 51 | 1039.4 |
| 20260507155917 | 61 | 336 | 2.0 | 7.0 | 0.00 | 0.00 | 0.00 | 54 | 1039.4 |
| 20260507155415 | 61 | 70 | 2.0 | 7.0 | 0.00 | 0.00 | 0.00 | 52 | 1039.4 |
| 20260507154914 | 61 | 116 | 2.0 | 6.0 | 0.00 | 0.00 | 0.00 | 54 | 1039.7 |
| 20260507154409 | 60 | 202 | 2.0 | 7.0 | 0.00 | 0.00 | 0.00 | 53 | 1039.7 |
| 20260507153858 | 61 | 212 | 2.0 | 7.0 | 0.00 | 0.00 | 0.00 | 56 | 1039.7 |
| 20260507153356 | 61 | 202 | 2.0 | 7.0 | 0.00 | 0.00 | 0.00 | 55 | 1039.7 |
| 20260507152851 | 60 | 347 | 2.0 | 7.0 | 0.00 | 0.00 | 0.00 | 55 | 1039.7 |
| 20260507152344 | 61 | 126 | 2.0 | 6.0 | 0.00 | 0.00 | 0.00 | 54 | 1039.7 |
| 20260507151838 | 61 | 36 | 2.0 | 5.0 | 0.00 | 0.00 | 0.00 | 55 | 1039.8 |
| 20260507151332 | 61 | 286 | 1.0 | 5.0 | 0.00 | 0.00 | 0.00 | 58 | 1039.8 |
| 20260507150827 | 61 | 223 | 1.0 | 6.0 | 0.00 | 0.00 | 0.00 | 55 | 1039.8 |
| 20260507150539 | 61 | 180 | 1.0 | 6.0 | 0.00 | 0.00 | 0.00 | 55 | 1040.3 |
| 20260507145815 | 60 | 215 | 1.0 | 5.0 | 0.00 | 0.00 | 0.00 | 52 | 1040.3 |
| 20260507145308 | 60 | 207 | 2.0 | 7.0 | 0.00 | 0.00 | 0.00 | 52 | 1040.3 |
| 20260507145027 | 60 | 31 | 1.0 | 7.0 | 0.00 | 0.00 | 0.00 | 55 | 1040.7 |
| 20260507144344 | 59 | 159 | 1.0 | 4.0 | 0.00 | 0.00 | 0.00 | 55 | 1040.7 |
| 20260507143244 | 58 | 55 | 2.0 | 8.0 | 0.00 | 0.00 | 0.00 | 60 | 1040.7 |
| 20260507142734 | 58 | 265 | 2.0 | 8.0 | 0.00 | 0.00 | 0.00 | 59 | 1040.7 |
| 20260507142232 | 57 | 227 | 2.0 | 5.0 | 0.00 | 0.01 | 0.00 | 57 | 1040.7 |
| 20260507141726 | 57 | 229 | 2.0 | 8.0 | 0.00 | 0.01 | 0.00 | 58 | 1040.8 |
| 20260507141216 | 56 | 33 | 1.0 | 8.0 | 0.00 | 0.01 | 0.00 | 57 | 1040.8 |
| 20260507140714 | 57 | 294 | 1.0 | 3.0 | 0.00 | 0.01 | 0.00 | 59 | 1040.8 |
| 20260507140209 | 56 | 64 | 1.0 | 5.0 | 0.00 | 0.01 | 0.00 | 59 | 1041.0 |
| 20260507135703 | 56 | 63 | 2.0 | 5.0 | 0.00 | 0.01 | 0.00 | 56 | 1041.0 |
| 20260507135153 | 56 | 242 | 2.0 | 6.0 | 0.00 | 0.02 | 0.00 | 59 | 1041.0 |
| 20260507135132 | 56 | 355 | 1.0 | 6.0 | 0.00 | 0.02 | 0.00 | 57 | 1041.2 |
| 20260507134406 | 56 | 140 | 1.0 | 7.0 | 0.00 | 0.02 | 0.00 | 58 | 1041.2 |
| 20260507133639 | 56 | 155 | 1.0 | 7.0 | 0.00 | 0.02 | 0.00 | 58 | 1041.2 |
| 20260507133133 | 56 | 242 | 1.0 | 4.0 | 0.00 | 0.02 | 0.00 | 59 | 1041.2 |
| 20260507132627 | 56 | 336 | 0.0 | 2.0 | 0.00 | 0.02 | 0.00 | 58 | 1041.2 |
| 20260507132116 | 56 | 131 | 1.0 | 5.0 | 0.00 | 0.02 | 0.00 | 59 | 1041.3 |
| 20260507131840 | 55 | 108 | 1.0 | 5.0 | 0.00 | 0.02 | 0.00 | 60 | 1041.3 |
| 20260507131108 | 54 | 295 | 1.0 | 5.0 | 0.00 | 0.03 | 0.00 | 63 | 1041.3 |
| 20260507130832 | 53 | 5 | 1.0 | 5.0 | 0.00 | 0.03 | 0.00 | 63 | 1041.3 |
| 20260507130056 | 53 | 231 | 0.0 | 3.0 | 0.00 | 0.03 | 0.00 | 62 | 1041.3 |
| 20260507125816 | 53 | 326 | 1.0 | 3.0 | 0.00 | 0.03 | 0.00 | 64 | 1041.3 |
| 20260507125044 | 53 | 252 | 1.0 | 3.0 | 0.00 | 0.04 | 0.00 | 66 | 1041.3 |
| 20260507124538 | 53 | 34 | 0.0 | 2.0 | 0.00 | 0.05 | 0.00 | 67 | 1041.3 |
| 20260507124028 | 53 | 271 | 0.0 | 1.0 | 0.00 | 0.06 | 0.00 | 67 | 1041.3 |
| 20260507123526 | 53 | 279 | 0.0 | 3.0 | 0.00 | 0.06 | 0.00 | 66 | 1041.3 |
| 20260507123016 | 52 | 261 | 1.0 | 3.0 | 0.00 | 0.07 | 0.00 | 64 | 1041.3 |
| 20260507122514 | 52 | 246 | 1.0 | 2.0 | 0.00 | 0.07 | 0.00 | 64 | 1041.3 |
| 20260507122008 | 52 | 290 | 0.0 | 3.0 | 0.00 | 0.08 | 0.00 | 65 | 1041.3 |
| 20260507121502 | 52 | 254 | 0.0 | 3.0 | 0.00 | 0.09 | 0.00 | 67 | 1041.3 |
| 20260507120956 | 52 | 271 | 0.0 | 2.0 | 0.00 | 0.09 | 0.00 | 65 | 1041.3 |
| 20260507120448 | 52 | 22 | 0.0 | 2.0 | 0.00 | 0.09 | 0.00 | 67 | 1041.2 |
| 20260507115944 | 52 | 70 | 0.0 | 2.0 | 0.00 | 0.09 | 0.00 | 65 | 1041.2 |
| 20260507115441 | 51 | 96 | 0.0 | 3.0 | 0.00 | 0.09 | 0.00 | 65 | 1041.2 |
| 20260507114932 | 51 | 87 | 0.0 | 3.0 | 0.00 | 0.10 | 0.00 | 66 | 1041.1 |
| 20260507114426 | 51 | 178 | 0.0 | 3.0 | 0.00 | 0.10 | 0.00 | 67 | 1041.1 |
| 20260507113915 | 51 | 26 | 0.0 | 4.0 | 0.00 | 0.11 | 0.00 | 69 | 1041.1 |
| 20260507113415 | 51 | 42 | 0.0 | 4.0 | 0.00 | 0.12 | 0.00 | 71 | 1040.8 |
| 20260507113123 | 51 | 121 | 0.0 | 2.0 | 0.00 | 0.12 | 0.00 | 67 | 1040.8 |
| 20260507112402 | 51 | 130 | 0.0 | 2.0 | 0.00 | 0.13 | 0.00 | 66 | 1040.8 |
| 20260507112342 | 51 | 29 | 0.0 | 2.0 | 0.00 | 0.13 | 0.00 | 72 | 1040.9 |
| 20260507111351 | 51 | 92 | 0.0 | 2.0 | 0.00 | 0.13 | 0.00 | 72 | 1040.9 |
| 20260507110844 | 51 | 117 | 0.0 | 2.0 | 0.00 | 0.14 | 0.00 | 67 | 1040.9 |
| 20260507110339 | 51 | 227 | 0.0 | 3.0 | 0.00 | 0.14 | 0.00 | 72 | 1040.8 |
| 20260507105832 | 51 | 300 | 0.0 | 3.0 | 0.00 | 0.14 | 0.00 | 69 | 1040.8 |
| 20260507105321 | 51 | 300 | 0.0 | 2.0 | 0.00 | 0.15 | 0.00 | 73 | 1040.8 |
| 20260507104820 | 51 | 108 | 0.0 | 3.0 | 0.00 | 0.15 | 0.00 | 73 | 1040.7 |
| 20260507104314 | 51 | 97 | 0.0 | 3.0 | 0.00 | 0.15 | 0.00 | 72 | 1040.7 |
| 20260507103808 | 50 | 245 | 0.0 | 0.0 | 0.00 | 0.15 | 0.00 | 74 | 1040.7 |
| 20260507103302 | 51 | 165 | 0.0 | 3.0 | 0.00 | 0.15 | 0.00 | 78 | 1040.3 |
| 20260507103021 | 50 | 165 | 0.0 | 3.0 | 0.00 | 0.15 | 0.00 | 76 | 1040.3 |
| 20260507102249 | 50 | 268 | 0.0 | 0.0 | 0.00 | 0.15 | 0.00 | 82 | 1040.3 |
| 20260507101739 | 51 | 268 | 0.0 | 0.0 | 0.00 | 0.15 | 0.00 | 81 | 1040.3 |
| 20260507101237 | 51 | 268 | 0.0 | 0.0 | 0.00 | 0.15 | 0.00 | 82 | 1040.3 |
| 20260507100959 | 51 | 267 | 0.0 | 0.0 | 0.00 | 0.15 | 0.00 | 83 | 1040.3 |
| 20260507100226 | 51 | 268 | 0.0 | 1.0 | 0.00 | 0.15 | 0.00 | 82 | 1040.2 |
| 20260507095720 | 51 | 268 | 0.0 | 1.0 | 0.00 | 0.15 | 0.00 | 84 | 1040.2 |
| 20260507095214 | 51 | 267 | 0.0 | 1.0 | 0.00 | 0.15 | 0.00 | 82 | 1040.2 |
| 20260507094708 | 51 | 61 | 0.0 | 0.0 | 0.00 | 0.15 | 0.00 | 84 | 1040.0 |
| 20260507094158 | 51 | 61 | 0.0 | 0.0 | 0.00 | 0.15 | 0.00 | 83 | 1040.0 |
| 20260507093924 | 51 | 61 | 0.0 | 0.0 | 0.00 | 0.15 | 0.00 | 81 | 1040.0 |
| 20260507093422 | 51 | 61 | 0.0 | 0.0 | 0.00 | 0.15 | 0.00 | 80 | 1039.8 |
| 20260507092914 | 52 | 61 | 0.0 | 0.0 | 0.00 | 0.15 | 0.00 | 79 | 1039.8 |
| 20260507092138 | 52 | 61 | 0.0 | 0.0 | 0.00 | 0.15 | 0.00 | 78 | 1039.8 |
| 20260507091628 | 52 | 61 | 0.0 | 0.0 | 0.00 | 0.15 | 0.00 | 77 | 1039.9 |
| 20260507091124 | 52 | 61 | 0.0 | 0.0 | 0.00 | 0.15 | 0.00 | 78 | 1039.9 |
| 20260507090618 | 52 | 61 | 0.0 | 2.0 | 0.00 | 0.15 | 0.00 | 79 | 1040.1 |
| 20260507090108 | 52 | 61 | 0.0 | 3.0 | 0.00 | 0.15 | 0.00 | 76 | 1040.1 |
| 20260507085602 | 52 | 346 | 1.0 | 3.0 | 0.00 | 0.15 | 0.00 | 77 | 1040.1 |
| 20260507085059 | 52 | 157 | 1.0 | 5.0 | 0.00 | 0.15 | 0.00 | 77 | 1039.9 |
| 20260507084824 | 52 | 70 | 0.0 | 5.0 | 0.00 | 0.15 | 0.00 | 81 | 1039.9 |
| 20260507084059 | 52 | 283 | 0.0 | 0.0 | 0.00 | 0.15 | 0.00 | 83 | 1039.9 |
| 20260507083600 | 52 | 283 | 0.0 | 0.0 | 0.00 | 0.15 | 0.00 | 83 | 1039.9 |
| 20260507083059 | 53 | 283 | 0.0 | 0.0 | 0.00 | 0.15 | 0.00 | 83 | 1039.9 |
| 20260507082559 | 53 | 282 | 0.0 | 0.0 | 0.00 | 0.15 | 0.00 | 83 | 1039.9 |
| 20260507082100 | 53 | 308 | 0.0 | 1.0 | 0.00 | 0.15 | 0.00 | 81 | 1039.7 |
| 20260507082046 | 53 | 309 | 0.0 | 1.0 | 0.00 | 0.15 | 0.00 | 81 | 1039.7 |
| 20260507081054 | 53 | 258 | 0.0 | 0.0 | 0.00 | 0.15 | 0.00 | 80 | 1039.7 |
| 20260507080542 | 53 | 258 | 0.0 | 2.0 | 0.00 | 0.15 | 0.00 | 80 | 1039.5 |
| 20260507080030 | 53 | 21 | 0.0 | 2.0 | 0.00 | 0.15 | 0.00 | 80 | 1039.5 |
| 20260507075745 | 53 | 294 | 0.0 | 2.0 | 0.00 | 0.15 | 0.00 | 81 | 1039.5 |
| 20260507075024 | 53 | 55 | 0.0 | 3.0 | 0.00 | 0.15 | 0.00 | 81 | 1039.3 |
| 20260507074746 | 53 | 311 | 1.0 | 5.0 | 0.00 | 0.15 | 0.00 | 81 | 1039.3 |
| 20260507074024 | 53 | 55 | 0.0 | 5.0 | 0.00 | 0.15 | 0.00 | 82 | 1039.3 |
| 20260507073524 | 53 | 129 | 0.0 | 1.0 | 0.00 | 0.15 | 0.00 | 85 | 1039.2 |
| 20260507073023 | 53 | 291 | 0.0 | 1.0 | 0.00 | 0.15 | 0.00 | 85 | 1039.2 |
| 20260507072524 | 53 | 92 | 0.0 | 1.0 | 0.00 | 0.15 | 0.00 | 84 | 1039.2 |
| 20260507072023 | 53 | 246 | 0.0 | 1.0 | 0.00 | 0.15 | 0.00 | 84 | 1039.1 |
| 20260507071739 | 53 | 246 | 0.0 | 2.0 | 0.00 | 0.15 | 0.00 | 84 | 1039.1 |
| 20260507071015 | 53 | 230 | 0.0 | 2.0 | 0.00 | 0.15 | 0.00 | 85 | 1039.1 |
| 20260507070740 | 53 | 265 | 0.0 | 1.0 | 0.00 | 0.15 | 0.00 | 84 | 1039.4 |
| 20260507070004 | 53 | 270 | 0.0 | 1.0 | 0.00 | 0.15 | 0.00 | 85 | 1039.4 |
| 20260507065945 | 53 | 163 | 0.0 | 1.0 | 0.00 | 0.15 | 0.00 | 85 | 1039.4 |
| 20260507064956 | 53 | 53 | 0.0 | 1.0 | 0.00 | 0.15 | 0.00 | 85 | 1039.7 |
| 20260507064939 | 53 | 194 | 0.0 | 1.0 | 0.00 | 0.15 | 0.00 | 84 | 1039.7 |
| 20260507063943 | 53 | 267 | 0.0 | 1.0 | 0.00 | 0.15 | 0.00 | 85 | 1039.7 |
| 20260507063921 | 53 | 33 | 0.0 | 1.0 | 0.00 | 0.15 | 0.00 | 84 | 1039.8 |
| 20260507062931 | 54 | 259 | 0.0 | 1.0 | 0.00 | 0.15 | 0.00 | 85 | 1039.8 |
| 20260507062646 | 54 | 302 | 0.0 | 1.0 | 0.00 | 0.15 | 0.00 | 84 | 1039.8 |
| 20260507061915 | 54 | 273 | 0.0 | 0.0 | 0.00 | 0.15 | 0.00 | 84 | 1040.1 |
| 20260507061411 | 54 | 273 | 0.0 | 1.0 | 0.00 | 0.15 | 0.00 | 83 | 1040.1 |
| 20260507061344 | 54 | 273 | 0.0 | 1.0 | 0.00 | 0.15 | 0.00 | 83 | 1040.1 |
| 20260507060358 | 54 | 278 | 0.0 | 1.0 | 0.00 | 0.15 | 0.00 | 83 | 1040.2 |
| 20260507055851 | 54 | 282 | 0.0 | 2.0 | 0.00 | 0.15 | 0.00 | 82 | 1040.2 |
| 20260507055342 | 54 | 281 | 0.0 | 2.0 | 0.00 | 0.15 | 0.00 | 83 | 1040.2 |
| 20260507054839 | 54 | 117 | 0.0 | 2.0 | 0.00 | 0.15 | 0.00 | 82 | 1040.1 |
| 20260507054335 | 54 | 88 | 0.0 | 2.0 | 0.00 | 0.15 | 0.00 | 82 | 1040.1 |
| 20260507054054 | 54 | 250 | 0.0 | 1.0 | 0.00 | 0.15 | 0.00 | 82 | 1040.1 |
| 20260507053322 | 54 | 89 | 0.0 | 1.0 | 0.00 | 0.15 | 0.00 | 82 | 1039.7 |
| 20260507052815 | 54 | 89 | 0.0 | 1.0 | 0.00 | 0.15 | 0.00 | 82 | 1039.7 |
| 20260507052311 | 55 | 315 | 0.0 | 1.0 | 0.00 | 0.15 | 0.00 | 83 | 1039.7 |
| 20260507051759 | 55 | 293 | 0.0 | 7.0 | 0.00 | 0.15 | 0.00 | 83 | 1039.5 |
| 20260507051259 | 55 | 328 | 0.0 | 7.0 | 0.00 | 0.15 | 0.00 | 82 | 1039.5 |
| 20260507050751 | 55 | 119 | 0.0 | 1.0 | 0.00 | 0.15 | 0.00 | 83 | 1039.5 |
| 20260507050512 | 55 | 119 | 0.0 | 1.0 | 0.00 | 0.15 | 0.00 | 83 | 1039.5 |
| 20260507045739 | 55 | 254 | 0.0 | 1.0 | 0.00 | 0.15 | 0.00 | 83 | 1039.5 |
| 20260507045234 | 55 | 177 | 0.0 | 2.0 | 0.00 | 0.15 | 0.00 | 83 | 1039.5 |
| 20260507045207 | 55 | 281 | 0.0 | 2.0 | 0.00 | 0.15 | 0.00 | 83 | 1039.5 |
| 20260507044223 | 55 | 175 | 0.0 | 2.0 | 0.00 | 0.15 | 0.00 | 83 | 1039.5 |
| 20260507043715 | 55 | 246 | 1.0 | 5.0 | 0.00 | 0.15 | 0.00 | 84 | 1039.5 |
| 20260507043205 | 55 | 59 | 1.0 | 5.0 | 0.00 | 0.15 | 0.00 | 83 | 1039.3 |
| 20260507042703 | 55 | 332 | 1.0 | 5.0 | 0.00 | 0.15 | 0.00 | 83 | 1039.3 |
| 20260507042157 | 55 | 150 | 1.0 | 5.0 | 0.00 | 0.15 | 0.00 | 84 | 1039.3 |
| 20260507041651 | 55 | 350 | 1.0 | 5.0 | 0.00 | 0.15 | 0.00 | 84 | 1039.5 |
| 20260507041145 | 55 | 248 | 0.0 | 2.0 | 0.00 | 0.15 | 0.00 | 85 | 1039.5 |
| 20260507040634 | 56 | 118 | 0.0 | 2.0 | 0.00 | 0.15 | 0.00 | 85 | 1039.5 |
| 20260507040133 | 56 | 230 | 1.0 | 7.0 | 0.00 | 0.15 | 0.00 | 85 | 1040.0 |
| 20260507035623 | 56 | 42 | 1.0 | 7.0 | 0.00 | 0.15 | 0.15 | 86 | 1040.0 |
| 20260507035121 | 56 | 263 | 1.0 | 4.0 | 0.00 | 0.15 | 0.15 | 86 | 1039.1 |
| 20260507034615 | 56 | 224 | 1.0 | 4.0 | 0.00 | 0.15 | 0.15 | 86 | 1039.1 |
| 20260507034109 | 56 | 72 | 0.0 | 4.0 | 0.00 | 0.15 | 0.15 | 86 | 1039.1 |
| 20260507033603 | 56 | 217 | 0.0 | 2.0 | 0.00 | 0.15 | 0.15 | 86 | 1039.4 |
| 20260507033053 | 56 | 100 | 0.0 | 2.0 | 0.00 | 0.15 | 0.15 | 86 | 1039.4 |
| 20260507032551 | 56 | 98 | 0.0 | 3.0 | 0.00 | 0.15 | 0.15 | 85 | 1039.4 |
| 20260507032045 | 57 | 221 | 1.0 | 5.0 | 0.00 | 0.15 | 0.15 | 85 | 1039.7 |
| 20260507031540 | 57 | 219 | 1.0 | 5.0 | 0.00 | 0.15 | 0.15 | 85 | 1039.7 |
| 20260507031254 | 57 | 189 | 1.0 | 5.0 | 0.00 | 0.15 | 0.15 | 86 | 1039.7 |
| 20260507030744 | 57 | 310 | 1.0 | 7.0 | 0.00 | 0.15 | 0.15 | 85 | 1039.7 |
| 20260507030233 | 57 | 323 | 1.0 | 7.0 | 0.00 | 0.15 | 0.15 | 86 | 1039.7 |
| 20260507025737 | 57 | 38 | 1.0 | 3.0 | 0.00 | 0.15 | 0.15 | 84 | 1039.7 |
| 20260507025228 | 57 | 128 | 1.0 | 4.0 | 0.00 | 0.15 | 0.15 | 84 | 1039.2 |
| 20260507024726 | 58 | 11 | 1.0 | 4.0 | 0.00 | 0.15 | 0.15 | 84 | 1039.2 |
| 20260507023954 | 58 | 113 | 1.0 | 5.0 | 0.00 | 0.15 | 0.15 | 84 | 1039.2 |
| 20260507023447 | 58 | 157 | 1.0 | 5.0 | 0.00 | 0.15 | 0.15 | 84 | 1039.1 |
| 20260507022942 | 58 | 91 | 1.0 | 5.0 | 0.00 | 0.15 | 0.15 | 84 | 1039.1 |
| 20260507022430 | 58 | 206 | 1.0 | 5.0 | 0.00 | 0.15 | 0.15 | 84 | 1039.1 |
| 20260507021929 | 58 | 331 | 1.0 | 4.0 | 0.00 | 0.15 | 0.15 | 84 | 1038.9 |
| 20260507021419 | 58 | 99 | 1.0 | 4.0 | 0.00 | 0.15 | 0.15 | 85 | 1038.9 |
| 20260507021145 | 58 | 196 | 0.0 | 0.0 | 0.00 | 0.15 | 0.15 | 86 | 1038.9 |
| 20260507020411 | 58 | 196 | 0.0 | 0.0 | 0.00 | 0.15 | 0.15 | 86 | 1038.8 |
| 20260507015905 | 58 | 197 | 0.0 | 0.0 | 0.00 | 0.15 | 0.15 | 84 | 1038.8 |
| 20260507015359 | 58 | 44 | 0.0 | 0.0 | 0.00 | 0.15 | 0.15 | 85 | 1038.8 |
| 20260507014853 | 59 | 223 | 0.0 | 2.0 | 0.00 | 0.15 | 0.15 | 83 | 1038.6 |
| 20260507014347 | 59 | 222 | 1.0 | 9.0 | 0.00 | 0.15 | 0.15 | 84 | 1038.6 |
| 20260507013837 | 59 | 79 | 1.0 | 9.0 | 0.00 | 0.15 | 0.15 | 84 | 1038.6 |
| 20260507013335 | 59 | 125 | 2.0 | 11.0 | 0.00 | 0.15 | 0.15 | 83 | 1038.6 |
| 20260507012828 | 59 | 279 | 2.0 | 11.0 | 0.00 | 0.15 | 0.15 | 83 | 1038.6 |
| 20260507012323 | 59 | 301 | 2.0 | 11.0 | 0.00 | 0.15 | 0.15 | 84 | 1038.6 |
| 20260507011817 | 59 | 98 | 1.0 | 8.0 | 0.00 | 0.15 | 0.15 | 85 | 1038.6 |
| 20260507011307 | 59 | 138 | 0.0 | 6.0 | 0.00 | 0.15 | 0.15 | 85 | 1038.6 |
| 20260507010805 | 59 | 284 | 1.0 | 5.0 | 0.00 | 0.15 | 0.15 | 85 | 1038.6 |
| 20260507010305 | 60 | 13 | 1.0 | 6.0 | 0.00 | 0.15 | 0.15 | 83 | 1038.1 |
| 20260507005805 | 60 | 56 | 1.0 | 6.0 | 0.00 | 0.15 | 0.15 | 83 | 1038.1 |
| 20260507005309 | 60 | 200 | 0.0 | 4.0 | 0.00 | 0.15 | 0.15 | 83 | 1038.1 |
| 20260507005020 | 60 | 277 | 1.0 | 6.0 | 0.00 | 0.15 | 0.15 | 83 | 1038.6 |
| 20260507004301 | 60 | 311 | 2.0 | 6.0 | 0.00 | 0.15 | 0.15 | 83 | 1038.6 |
| 20260507003801 | 60 | 290 | 2.0 | 9.0 | 0.00 | 0.15 | 0.15 | 83 | 1038.6 |
| 20260507003302 | 60 | 246 | 1.0 | 9.0 | 0.00 | 0.15 | 0.15 | 83 | 1038.3 |
| 20260507002759 | 60 | 212 | 1.0 | 3.0 | 0.00 | 0.15 | 0.15 | 84 | 1038.3 |
| 20260507002258 | 61 | 261 | 1.0 | 3.0 | 0.00 | 0.15 | 0.15 | 84 | 1038.3 |
| 20260507001759 | 61 | 136 | 1.0 | 3.0 | 0.00 | 0.15 | 0.15 | 84 | 1038.3 |
| 20260507001256 | 61 | 257 | 2.0 | 8.0 | 0.00 | 0.15 | 0.15 | 84 | 1038.3 |
| 20260507000755 | 61 | 107 | 2.0 | 8.0 | 0.00 | 0.15 | 0.15 | 84 | 1038.3 |
| 20260507000254 | 61 | 69 | 1.0 | 3.0 | 0.00 | 0.15 | 0.15 | 85 | 1037.9 |
| 20260506235757 | 61 | 293 | 1.0 | 3.0 | 0.00 | 0.15 | 0.15 | 85 | 1037.9 |
| 20260506235258 | 62 | 49 | 1.0 | 5.0 | 0.00 | 0.15 | 0.15 | 84 | 1037.9 |
| 20260506234752 | 62 | 244 | 1.0 | 7.0 | 0.00 | 0.15 | 0.15 | 85 | 1037.5 |
| 20260506234241 | 62 | 55 | 1.0 | 7.0 | 0.00 | 0.15 | 0.15 | 85 | 1037.5 |
| 20260506233959 | 62 | 237 | 2.0 | 7.0 | 0.00 | 0.15 | 0.15 | 85 | 1037.5 |
| 20260506233238 | 62 | 20 | 2.0 | 7.0 | 0.00 | 0.15 | 0.15 | 84 | 1037.5 |
| 20260506232739 | 62 | 176 | 2.0 | 7.0 | 0.00 | 0.15 | 0.15 | 84 | 1037.5 |